RYR89DV LDZD-EDLV

Flight info

Callsign RYR89DV
Flight time N/A
Altitude 36000
Route RAVNA DCT RASTA DCT SIMBA DCT KEMES DCT TESDU DCT AMETU T852 EKSAK/N0370F260 T852 KULIX/N0359F240 T852 HMM Z850 TURUX DCT SOBTU SOBTU1W
Aircraft B738/M-SDE2E3FGHIRWXY/LB1

Departure

Time 2026-04-26 16:14
Airport Zadar Airport (LDZD)

Arrival

Time N/A
Airport Weeze (Niederrhein) Airport (EDLV)
Time Latitude Longitude Altitude Speed Heading
2026-04-26 15:16 44.09603 15.35439 270 ft 0 kts 326°
2026-04-26 16:11 44.09606 15.35438 273 ft 2 kts 333°
2026-04-26 16:11 44.09634 15.35465 273 ft 8 kts 74°
2026-04-26 16:11 44.09652 15.35535 274 ft 8 kts 33°
2026-04-26 16:12 44.09714 15.35537 277 ft 12 kts 356°
2026-04-26 16:12 44.09809 15.35529 273 ft 14 kts 357°
2026-04-26 16:12 44.09970 15.35634 278 ft 13 kts 45°
2026-04-26 16:13 44.10042 15.35708 279 ft 13 kts
2026-04-26 16:13 44.10071 15.35692 279 ft 0 kts 315°
2026-04-26 16:13 44.10077 15.35684 279 ft 12 kts 316°
2026-04-26 16:13 44.10314 15.35364 276 ft 84 kts 315°
2026-04-26 16:14 44.10867 15.34585 278 ft 136 kts 316°
2026-04-26 16:14 44.11622 15.33608 622 ft 158 kts 316°
2026-04-26 16:14 44.13349 15.31299 1726 ft 191 kts 314°
2026-04-26 16:15 44.14365 15.29910 1965 ft 219 kts 314°
2026-04-26 16:15 44.15494 15.28359 2350 ft 235 kts 315°
2026-04-26 16:15 44.16727 15.26671 2727 ft 257 kts 315°
2026-04-26 16:16 44.19532 15.23350 4216 ft 271 kts 322°
2026-04-26 16:16 44.21035 15.21700 4955 ft 277 kts 322°
2026-04-26 16:16 44.22544 15.20042 5865 ft 276 kts 323°
2026-04-26 16:16 44.24064 15.18364 6622 ft 281 kts 323°
2026-04-26 16:17 44.25601 15.16659 7400 ft 284 kts 323°
2026-04-26 16:17 44.27154 15.14930 8170 ft 288 kts 323°
2026-04-26 16:17 44.28719 15.13181 8980 ft 290 kts 322°
2026-04-26 16:17 44.30299 15.11414 9785 ft 293 kts 322°
2026-04-26 16:18 44.31897 15.09622 10434 ft 300 kts 323°
2026-04-26 16:18 44.35388 15.05702 10973 ft 339 kts 322°
2026-04-26 16:19 44.39105 15.01515 12402 ft 345 kts 322°
2026-04-26 16:19 44.40965 14.99417 13323 ft 343 kts 321°
2026-04-26 16:19 44.44085 14.95894 14503 ft 351 kts 321°
2026-04-26 16:20 44.46646 14.92999 15399 ft 357 kts 322°
2026-04-26 16:20 44.50552 14.88579 16794 ft 365 kts 322°
2026-04-26 16:20 44.52518 14.86382 17466 ft 369 kts 325°
2026-04-26 16:21 44.54809 14.84755 18110 ft 372 kts 342°
2026-04-26 16:21 44.57276 14.83612 18754 ft 375 kts 342°
2026-04-26 16:21 44.59772 14.82481 19369 ft 378 kts 342°
2026-04-26 16:21 44.62284 14.81340 20001 ft 380 kts 342°
2026-04-26 16:22 44.64805 14.80182 20621 ft 383 kts 342°
2026-04-26 16:22 44.67345 14.79004 21201 ft 386 kts 341°
2026-04-26 16:22 44.69906 14.77806 21773 ft 390 kts 341°
2026-04-26 16:22 44.72487 14.76590 22346 ft 393 kts 341°
2026-04-26 16:23 44.75091 14.75359 22917 ft 396 kts 341°
2026-04-26 16:23 44.77709 14.74117 23483 ft 399 kts 341°
2026-04-26 16:23 44.80349 14.72862 23973 ft 402 kts 341°
2026-04-26 16:23 44.83000 14.71601 24506 ft 402 kts 341°
2026-04-26 16:24 44.85650 14.70339 25038 ft 403 kts 340°
2026-04-26 16:24 44.88320 14.69066 25471 ft 406 kts 340°
2026-04-26 16:24 44.91014 14.67780 25831 ft 411 kts 340°
2026-04-26 16:24 44.93728 14.66483 26259 ft 413 kts 340°
2026-04-26 16:25 44.96453 14.65180 26736 ft 414 kts 340°
2026-04-26 16:25 44.99188 14.63871 27168 ft 416 kts 340°
2026-04-26 16:25 45.01940 14.62552 27580 ft 419 kts 340°
2026-04-26 16:25 45.04705 14.61226 27988 ft 421 kts 340°
2026-04-26 16:26 45.07491 14.59888 28393 ft 423 kts 340°
2026-04-26 16:26 45.09342 14.58999 28671 ft 424 kts 340°
2026-04-26 16:26 45.13095 14.57194 29203 ft 427 kts 340°
2026-04-26 16:26 45.15909 14.55838 29621 ft 428 kts 340°
2026-04-26 16:27 45.18727 14.54480 30182 ft 426 kts 340°
2026-04-26 16:27 45.21480 14.53153 30688 ft 422 kts 340°
2026-04-26 16:27 45.24259 14.51810 31126 ft 421 kts 339°
2026-04-26 16:27 45.27031 14.50470 31508 ft 421 kts 339°
2026-04-26 16:28 45.29802 14.49128 31908 ft 420 kts 339°
2026-04-26 16:28 45.32567 14.47789 32338 ft 419 kts 339°
2026-04-26 16:28 45.35323 14.46451 32757 ft 418 kts 339°
2026-04-26 16:28 45.38073 14.45116 33111 ft 418 kts 339°
2026-04-26 16:29 45.40836 14.43773 33436 ft 419 kts 339°
2026-04-26 16:29 45.43587 14.42434 33846 ft 418 kts 339°
2026-04-26 16:29 45.46330 14.41098 34262 ft 416 kts 338°
2026-04-26 16:29 45.49065 14.39765 34578 ft 415 kts 338°
2026-04-26 16:30 45.51792 14.38434 34854 ft 416 kts 338°
2026-04-26 16:30 45.54552 14.37085 35151 ft 416 kts 338°
2026-04-26 16:30 45.57274 14.35753 35457 ft 415 kts 338°
2026-04-26 16:30 45.60003 14.34417 35745 ft 415 kts 338°
2026-04-26 16:31 45.62734 14.33079 35997 ft 415 kts 338°
2026-04-26 16:31 45.65476 14.31733 36086 ft 419 kts 338°
2026-04-26 16:31 45.71015 14.29009 36084 ft 420 kts 338°
2026-04-26 16:32 45.75566 14.26772 36080 ft 413 kts 338°
2026-04-26 16:32 45.81919 14.23638 36083 ft 413 kts 338°
2026-04-26 16:33 45.87357 14.20941 36081 ft 414 kts 338°
2026-04-26 16:33 45.92768 14.18263 36087 ft 415 kts 338°
2026-04-26 16:34 45.98226 14.15555 36083 ft 416 kts 338°
2026-04-26 16:34 46.03690 14.12837 36081 ft 416 kts 338°
2026-04-26 16:35 46.09173 14.10103 36090 ft 417 kts 338°
2026-04-26 16:35 46.14668 14.07357 36088 ft 418 kts 338°
2026-04-26 16:36 46.20172 14.04602 36087 ft 419 kts 338°
2026-04-26 16:36 46.25673 14.01842 36087 ft 418 kts 338°
2026-04-26 16:37 46.31161 13.99082 36080 ft 417 kts 338°
2026-04-26 16:37 46.35720 13.96786 36075 ft 417 kts 338°
2026-04-26 16:38 46.42104 13.93562 36096 ft 415 kts 338°
2026-04-26 16:38 46.47553 13.90804 36085 ft 415 kts 338°
2026-04-26 16:39 46.53000 13.88042 36063 ft 414 kts 338°
2026-04-26 16:39 46.58436 13.85280 36070 ft 414 kts 338°
2026-04-26 16:40 46.63869 13.82513 36075 ft 413 kts 338°
2026-04-26 16:40 46.69290 13.79746 36074 ft 413 kts 338°
2026-04-26 16:41 46.74701 13.76978 36101 ft 412 kts 338°
2026-04-26 16:41 46.80085 13.74217 36090 ft 413 kts 338°
2026-04-26 16:42 46.85513 13.71429 36094 ft 414 kts 338°
2026-04-26 16:42 46.90951 13.68630 36096 ft 414 kts 338°
2026-04-26 16:43 46.96395 13.65822 36109 ft 415 kts 338°
2026-04-26 16:43 47.01836 13.63009 36124 ft 415 kts 338°
2026-04-26 16:44 47.07279 13.60188 36114 ft 415 kts 338°
2026-04-26 16:44 47.12716 13.57366 36139 ft 414 kts 338°
2026-04-26 16:45 47.18149 13.54538 36148 ft 414 kts 337°
2026-04-26 16:45 47.23575 13.51709 36156 ft 414 kts 337°
2026-04-26 16:46 47.29003 13.48872 36157 ft 414 kts 337°
2026-04-26 16:46 47.34426 13.46031 36163 ft 413 kts 337°
2026-04-26 16:47 47.39851 13.43183 36157 ft 413 kts 337°
2026-04-26 16:47 47.45260 13.40337 36187 ft 413 kts 337°
2026-04-26 16:48 47.50686 13.37488 36165 ft 414 kts 338°
2026-04-26 16:48 47.55218 13.35245 36177 ft 413 kts 338°
2026-04-26 16:49 47.60674 13.32599 36175 ft 412 kts 338°
2026-04-26 16:49 47.66126 13.29938 36179 ft 412 kts 338°
2026-04-26 16:50 47.71575 13.27256 36174 ft 413 kts 338°
2026-04-26 16:50 47.77028 13.24562 36185 ft 413 kts 338°
2026-04-26 16:51 47.82473 13.21865 36183 ft 412 kts 338°
2026-04-26 16:51 47.87911 13.19165 36177 ft 412 kts 338°
2026-04-26 16:52 47.92426 13.16919 36185 ft 412 kts 338°
2026-04-26 16:52 47.98787 13.13748 36188 ft 412 kts 338°
2026-04-26 16:53 48.04230 13.11028 36181 ft 413 kts 338°
2026-04-26 16:53 48.09673 13.08302 36184 ft 413 kts 338°
2026-04-26 16:54 48.15122 13.05567 36184 ft 413 kts 338°
2026-04-26 16:54 48.20574 13.02802 36187 ft 412 kts 335°
2026-04-26 16:55 48.25458 12.98548 36180 ft 404 kts 316°
2026-04-26 16:55 48.29674 12.93003 36197 ft 403 kts 315°
2026-04-26 16:56 48.35935 12.84651 36195 ft 403 kts 315°
2026-04-26 16:57 48.40135 12.79083 36188 ft 402 kts 316°
2026-04-26 16:57 48.46432 12.70745 36188 ft 401 kts 315°
2026-04-26 16:58 48.49933 12.66102 36193 ft 400 kts 315°